Location: Marstown
(39.5056°N, 77.0820°W)
Time: 23:37:49
(UTC-04:00)

OTV 5 (USA 277) - Visible Passes

Search period start: 19 September 2018 00:00
Search period end: 29 September 2018 00:00
Orbit: 387 x 394 km, 54.5° (Epoch: 08 September)

Date Brightness Start Highest point End Pass type
(mag) Time Alt. Az. Time Alt. Az. Time Alt. Az.
24 Sep ? 05:59:01 10° SE 05:59:53 11° SE 06:00:45 10° ESE visible
26 Sep ? 05:40:21 10° S 05:42:53 22° SE 05:45:26 10° ENE visible
27 Sep ? 06:19:05 10° SW 06:22:15 70° NW 06:25:28 10° NE visible
28 Sep ? 05:25:17 38° S 05:25:57 45° SE 05:29:02 10° ENE visible
